Weather History for Grayling, MI

Change the Weather History Date:

Thursday, October 11, 2012

  Actual Average (KHTL) Record (KHTL)
Temperature  
Mean Temperature 38 °F 48 °F  
Max Temperature 50 °F 58 °F 87 °F (1928)
Min Temperature 27 °F 37 °F 18 °F (1964)
Degree Days  
Heating Degree Days 26 18  
Month to date heating degree days 174  
Since 1 July heating degree days 555  
Cooling Degree Days 0 0  
Month to date cooling degree days 0  
Year to date cooling degree days 285  
Moisture  
Dew Point 36 °F    
Average Humidity 89    
Maximum Humidity 100    
Minimum Humidity 74    
Precipitation  
Precipitation 0.00 in 0.08 in 0.79 in (1969)
Month to date precipitation 0.96  
Year to date precipitation 23.18  
Snow  
Snow 0.00 in 0.00 in 2.00 in (1932)
Month to date snowfall 0.1  
Since 1 July snowfall 0.1  
Snow Depth -    
Sea Level Pressure  
Sea Level Pressure 30.01 in    
Wind  
Wind Speed 5 mph (WSW)    
Max Wind Speed 16 mph    
Max Gust Speed 23 mph    
Visibility 9 miles    
Events Rain    
T = Trace of Precipitation, MM = Missing Value Source: NWS Daily Summary

Daily Weather History Graph

Daily Weather History Graph

Search for Another Location

Airport:

Trip Planner

Search our weather history database for the weather conditions in past years. The results will help you decide how hot, cold, wet, or windy it might be!

Date:

Astronomy

Oct. 11, 2012 Rise Set
Actual Time 7:49 AM EDT 7:00 PM EDT
Civil Twilight 7:20 AM EDT 7:29 PM EDT
Nautical Twilight 6:46 AM EDT 8:03 PM EDT
Astronomical Twilight 6:12 AM EDT 8:37 PM EDT
Moon 3:17 AM EDT (10/11) 4:44 PM EDT (10/11)
Length of Visible Light 12h 09m
Length of Day
11h 10m
Waning Crescent, 18% of the Moon is Illuminated
Oct 11
Waning Crescent
Oct 15
New
Oct 21
First Quarter
Oct 29
Full
Nov 6
Last Quarter

Hourly Weather History & Observations

Time (EDT) Temp. Windchill Dew Point Humidity Pressure Visibility Wind Dir Wind Speed Gust Speed Precip Events Conditions
12:11 AM 35.6 °F 32.8 °F 30.2 °F 81% 30.06 in 10.0 mi WSW 3.5 mph - N/A   Scattered Clouds
12:31 AM 34.7 °F 30.6 °F 29.8 °F 82% 30.06 in 10.0 mi WSW 4.6 mph - N/A   Clear
12:52 AM 34.7 °F 31.8 °F 30.2 °F 84% 30.06 in 10.0 mi WSW 3.5 mph - N/A   Clear
1:12 AM 34.7 °F - 30.2 °F 84% 30.06 in 10.0 mi Calm Calm - N/A   Clear
1:32 AM 32.4 °F 29.1 °F 29.8 °F 90% 30.06 in 10.0 mi WSW 3.5 mph - N/A   Clear
1:52 AM 32.4 °F 29.1 °F 29.5 °F 89% 30.06 in 10.0 mi SW 3.5 mph - N/A   Clear
2:12 AM 30.2 °F - 28.8 °F 94% 30.06 in 10.0 mi Calm Calm - N/A   Clear
2:32 AM 29.8 °F 26.3 °F 29.3 °F 98% 30.06 in 10.0 mi SW 3.5 mph - N/A   Clear
2:52 AM 32.0 °F 28.7 °F 28.8 °F 88% 30.06 in 10.0 mi SSW 3.5 mph - N/A   Clear
3:12 AM 29.8 °F - 28.6 °F 95% 30.05 in 10.0 mi Calm Calm - N/A   Clear
3:52 AM 29.8 °F - 29.7 °F 99% 30.02 in 10.0 mi Calm Calm - N/A   Clear
4:12 AM 29.5 °F - 29.5 °F 100% 30.02 in 10.0 mi Calm Calm - N/A   Clear
4:33 AM 27.3 °F - 27.3 °F 100% 30.03 in 10.0 mi Calm Calm - N/A   Clear
4:53 AM 29.7 °F - 29.5 °F 99% 30.03 in 10.0 mi Calm Calm - N/A   Scattered Clouds
5:13 AM 29.8 °F - 29.7 °F 99% 30.04 in 10.0 mi Calm Calm - N/A   Mostly Cloudy
5:33 AM 30.2 °F - 30.2 °F 100% 30.03 in 10.0 mi Calm Calm - N/A   Overcast
5:53 AM 34.2 °F 30.0 °F 32.9 °F 95% 30.04 in 10.0 mi SSW 4.6 mph - N/A   Overcast
6:13 AM 37.0 °F 31.0 °F 30.9 °F 79% 30.04 in 10.0 mi SSW 8.1 mph - N/A   Overcast
6:33 AM 37.0 °F 32.4 °F 31.8 °F 81% 30.03 in 10.0 mi SSW 5.8 mph - N/A Rain Light Rain
6:53 AM 37.8 °F 34.2 °F 32.2 °F 80% 30.02 in 10.0 mi SSW 4.6 mph - N/A   Overcast
7:13 AM 37.6 °F 33.1 °F 32.9 °F 83% 30.01 in 10.0 mi SSW 5.8 mph - N/A Rain Light Rain
7:33 AM 39.6 °F 35.4 °F 34.9 °F 83% 30.01 in 10.0 mi SSW 5.8 mph - N/A Rain Rain
7:53 AM 37.4 °F 32.8 °F 33.4 °F 86% 29.99 in 10.0 mi SSE 5.8 mph - N/A   Overcast
8:14 AM 37.0 °F 32.4 °F 33.1 °F 86% 29.98 in 10.0 mi South 5.8 mph - N/A   Overcast
8:34 AM 37.0 °F 31.6 °F 33.4 °F 87% 29.98 in 10.0 mi South 6.9 mph - N/A Rain Rain
8:54 AM 37.6 °F 33.1 °F 34.3 °F 88% 29.96 in 5.0 mi South 5.8 mph - N/A Rain Light Rain
9:14 AM 37.9 °F 33.5 °F 35.2 °F 90% 29.95 in 5.0 mi South 5.8 mph - N/A Rain Light Rain
9:34 AM 39.0 °F 34.8 °F 36.7 °F 91% 29.93 in 10.0 mi South 5.8 mph - N/A   Overcast
9:54 AM 39.6 °F 34.7 °F 37.4 °F 92% 29.92 in 7.0 mi South 6.9 mph - N/A Rain Light Rain
10:14 AM 39.9 °F 34.5 °F 37.8 °F 92% 29.91 in 10.0 mi South 8.1 mph - N/A Rain Rain
10:34 AM 41.0 °F 34.7 °F 38.7 °F 91% 29.90 in 10.0 mi SSW 10.4 mph 17.3 mph N/A Rain Light Rain
10:54 AM 42.3 °F 36.8 °F 40.1 °F 92% 29.90 in 10.0 mi SSW 9.2 mph - N/A Rain Rain
11:15 AM 43.2 °F 37.4 °F 40.8 °F 91% 29.89 in 10.0 mi SW 10.4 mph 17.3 mph N/A   Light Drizzle
11:35 AM 44.6 °F 39.2 °F 42.1 °F 91% 29.89 in 10.0 mi SW 10.4 mph 17.3 mph N/A   Drizzle
11:55 AM 45.3 °F 40.1 °F 42.6 °F 90% 29.88 in 10.0 mi SW 10.4 mph 16.1 mph N/A   Light Drizzle
12:10 PM 47.3 °F - 43.9 °F 88% 29.88 in 10.0 mi WSW 9.2 mph 19.6 mph N/A   Light Drizzle
12:30 PM 50.0 °F - 45.0 °F 83% 29.89 in 10.0 mi WSW 12.7 mph 20.7 mph N/A Rain Rain
12:50 PM 47.7 °F - 44.8 °F 90% 29.89 in 5.0 mi WSW 10.4 mph 17.3 mph N/A Rain Light Rain
1:10 PM 47.3 °F - 45.3 °F 93% 29.91 in 5.0 mi WSW 12.7 mph 20.7 mph N/A Rain Rain
1:51 PM 44.6 °F 37.8 °F 43.3 °F 95% 29.92 in 4.0 mi West 15.0 mph - N/A Rain Rain
2:11 PM 42.8 °F 36.6 °F 41.7 °F 96% 29.92 in 5.0 mi West 11.5 mph 20.7 mph N/A Rain Light Rain
2:31 PM 43.2 °F 37.9 °F 42.3 °F 97% 29.93 in 5.0 mi West 9.2 mph 16.1 mph N/A Rain Light Rain
2:51 PM 43.7 °F 37.7 °F 42.8 °F 97% 29.94 in 7.0 mi West 11.5 mph 20.7 mph N/A Rain Rain
3:11 PM 43.7 °F 38.1 °F 42.8 °F 97% 29.94 in 10.0 mi WSW 10.4 mph - N/A   Drizzle
3:31 PM 43.9 °F 39.9 °F 43.2 °F 97% 29.95 in 10.0 mi West 6.9 mph - N/A   Overcast
3:51 PM 43.9 °F 39.9 °F 43.0 °F 97% 29.96 in 10.0 mi West 6.9 mph 17.3 mph N/A   Overcast
4:12 PM 44.2 °F 39.2 °F 43.2 °F 96% 29.97 in 10.0 mi West 9.2 mph - N/A   Overcast
4:32 PM 44.1 °F 39.5 °F 42.8 °F 95% 29.98 in 10.0 mi West 8.1 mph 16.1 mph N/A   Overcast
4:52 PM 43.9 °F 38.8 °F 42.1 °F 93% 29.99 in 10.0 mi West 9.2 mph 16.1 mph N/A   Overcast
5:12 PM 43.9 °F 36.5 °F 41.7 °F 92% 30.00 in 7.0 mi West 16.1 mph 21.9 mph N/A Rain Rain
6:13 PM 42.8 °F 38.6 °F 40.8 °F 93% 30.02 in 10.0 mi West 6.9 mph - N/A   Mostly Cloudy
6:33 PM 42.3 °F 36.8 °F 37.8 °F 84% 30.03 in 10.0 mi West 9.2 mph - N/A   Mostly Cloudy
6:53 PM 41.9 °F 37.5 °F 36.1 °F 80% 30.04 in 10.0 mi West 6.9 mph - N/A   Overcast
7:13 PM 41.0 °F 38.0 °F 35.6 °F 81% 30.04 in 10.0 mi West 4.6 mph - N/A   Mostly Cloudy
7:33 PM 40.3 °F 37.1 °F 35.4 °F 83% 30.05 in 10.0 mi West 4.6 mph - N/A   Overcast
7:53 PM 39.7 °F 35.6 °F 34.3 °F 81% 30.06 in 10.0 mi West 5.8 mph - N/A   Mostly Cloudy
8:13 PM 39.6 °F 37.4 °F 34.7 °F 83% 30.07 in 10.0 mi West 3.5 mph - N/A   Scattered Clouds
8:34 PM 39.6 °F 36.3 °F 34.7 °F 83% 30.08 in 10.0 mi West 4.6 mph - N/A   Clear
8:54 PM 39.6 °F 36.3 °F 35.1 °F 84% 30.08 in 10.0 mi WSW 4.6 mph - N/A   Scattered Clouds
9:14 PM 39.4 °F 36.1 °F 34.9 °F 84% 30.09 in 10.0 mi WSW 4.6 mph - N/A   Clear
9:34 PM 39.6 °F - 36.0 °F 87% 30.10 in 10.0 mi Calm Calm - N/A   Mostly Cloudy
9:54 PM 38.1 °F 35.7 °F 34.2 °F 86% 30.11 in 10.0 mi WSW 3.5 mph - N/A   Scattered Clouds
10:14 PM 37.0 °F 33.3 °F 33.1 °F 86% 30.12 in 10.0 mi West 4.6 mph - N/A   Clear
10:54 PM 37.8 °F 33.3 °F 30.9 °F 76% 30.13 in 10.0 mi WNW 5.8 mph - N/A   Scattered Clouds
11:15 PM 39.6 °F 34.0 °F 32.0 °F 74% 30.14 in 10.0 mi WNW 8.1 mph - N/A   Scattered Clouds
11:35 PM 38.3 °F 32.5 °F 31.3 °F 76% 30.14 in 10.0 mi WNW 8.1 mph - N/A   Scattered Clouds
11:50 PM 39.2 °F 30.8 °F 32.7 °F 78% 30.16 in 10.0 mi North 15.0 mph 23.0 mph N/A   Scattered Clouds